Tracking 31027 objects as of 19-Jul-2025
HD Live streaming from Space Station
objects crossing your sky now

FENGYUN 1C DEB

Track FENGYUN 1C DEB now!
10-day predictions


NORAD ID: 31030
Int'l Code: 1999-025BDY
Perigee: 801.6 km
Apogee: 843.6 km
Inclination: 98.8 °
Period: 101.2 minutes
Semi major axis: 7193 km
RCS: 0.0064 m2 (small)
Launch date: May 10, 1999
Source: People's Republic of China (PRC)
Launch site: Taiyaun Space Center, China (TSC)

Note: This is SATELLITE DEBRIS
Your satellite tracking list
STARLINK-30103
Track 1 satellite(s)




NASA's NSSDC Master Catalog

Two Line Element Set (TLE):
1 31030U 99025BDY 25199.42018900  .00001471  00000-0  67082-3 0  9991
2 31030  98.7807 261.8206 0029173 146.0520 225.5603 14.22924510946094
Source of the keplerian elements: AFSPC